Location: Shenandoah County Park
(38.9356°N, 78.4524°W)
Time: 13:17:23
(UTC-05:00)

Vanguard 2 Rocket - Pass Details

Date: 09 December 2023
Orbit: 555 x 3309 km, 32.9° (Epoch: 02 March)

Event Time Altitude Azimuth Distance (km) Brightness Sun altitude
Rises 12:37:30 0° 227° (SW) 5,197 11.5 27.8°
Reaches altitude 10° 12:40:33 10° 222° (SW) 4,521 11.5 27.7°
Maximum altitude 12:53:37 51° 151° (SSE) 3,326 10.7 27.2°
Drops below altitude 10° 13:12:13 10° 84° (E) 6,266 11.0 26.3°
Sets 13:17:19 0° 80° (E) 7,271 11.2 26.0°
